2017-008DE

Last updated on March 10, 2017, 12:15 a.m. UTC

1 42048U 17008DE  17068.69487254  .00001533  00000-0  70887-4 0  9997
2 42048  97.5106 130.2954 0008820 177.2880 182.8405 15.21672077  2562
UTC
Height (km)
Latitude
Longitude
Inclination
Orbital Period
UTC large
Height (km)
Speed (km/s)
/
Latitude / Longitude
Inclination (degrees)
Orbital Period (minutes)
Azimuth
Elevation
Range (km)
Doppler Factor
iOS Compass Heading
iOS Angle